Tracking 22879 objects as of 22-Apr-2021
HD Live streaming from Space Station
objects crossing your sky now

FLOCK 3K 7

Track FLOCK 3K 7 now!
10-day predictions
FLOCK 3K 7 is classified as:


NORAD ID: 43902
Int'l Code: 2018-111AC
Perigee: 474.7 km
Apogee: 505.0 km
Inclination: 97.2 °
Period: 94.3 minutes
Semi major axis: 6860 km
RCS: Unknown
Launch date: December 27, 2018
Source: United States (US)
Launch site: VOSTOCHNY COSMODROME (VOSTO)
aabbcc
Your satellite tracking list
Your tracking list is empty




NASA's NSSDC Master Catalog

Two Line Element Set (TLE):
1 43902U 18111AC  21111.67359784  .00007469  00000-0  27679-3 0  9995
2 43902  97.2400   8.8108 0022081 128.2784 232.0446 15.27679253129057
Source of the keplerian elements: AFSPC